KC2DUX Weather Reports


Display with metric or nautical units.
time (UTC)temp
F
wind
direction
speed
MPH
gust
MPH
rain 1hr
in
rain 24hr
in
rain mn
in
humidity
%
barometer
mb
20211205143045 45 106 3.0 6.0 0.00 0.00 0.00 57 1028.8
20211205142538 45 46 1.0 6.0 0.00 0.00 0.00 61 1028.6
20211205142034 44 67 2.0 6.0 0.00 0.00 0.00 61 1028.6
20211205141601 44 54 3.0 6.0 0.00 0.00 0.00 60 1028.6
20211205141039 43 97 2.0 6.0 0.00 0.00 0.00 63 1028.6
20211205140532 43 65 3.0 6.0 0.00 0.00 0.00 63 1028.5
20211205140102 42 52 1.0 5.0 0.00 0.00 0.00 64 1028.5
20211205135541 41 52 2.0 6.0 0.00 0.00 0.00 64 1028.6
20211205135035 41 51 2.0 6.0 0.00 0.00 0.00 66 1028.5
20211205134544 40 34 2.0 4.0 0.00 0.00 0.00 67 1028.4
20211205134029 39 31 2.0 3.0 0.00 0.00 0.00 68 1028.3
20211205133521 39 30 0.0 5.0 0.00 0.00 0.00 72 1028.3
20211205132519 36 22 0.0 3.0 0.00 0.00 0.00 76 1028.2
20211205132017 35 21 0.0 2.0 0.00 0.00 0.00 80 1028.2
20211205131526 33 21 1.0 2.0 0.00 0.00 0.00 83 1028.1
20211205131017 32 21 0.0 1.0 0.00 0.00 0.00 85 1028.2
20211205130534 31 21 0.0 1.0 0.00 0.00 0.00 85 1028.1
20211205130054 31 21 0.0 0.0 0.00 0.00 0.00 84 1028.0
20211205125518 30 21 0.0 0.0 0.00 0.00 0.00 85 1028.0
20211205125017 30 21 0.0 0.0 0.00 0.00 0.00 85 1028.1
20211205124549 30 21 0.0 0.0 0.00 0.00 0.00 85 1028.0
20211205124014 29 21 0.0 0.0 0.00 0.00 0.00 84 1027.9
20211205123513 29 21 0.0 0.0 0.00 0.00 0.00 85 1027.9
20211205123015 29 21 0.0 0.0 0.00 0.00 0.00 85 1027.9
20211205122519 30 21 0.0 0.0 0.00 0.00 0.00 84 1027.9
20211205122013 30 21 0.0 0.0 0.00 0.00 0.00 84 1027.8
20211205121542 29 21 0.0 0.0 0.00 0.00 0.00 84 1027.8
20211205121011 30 21 0.0 0.0 0.00 0.00 0.00 84 1027.7
20211205120512 30 21 0.0 0.0 0.00 0.00 0.00 84 1027.6
20211205120019 30 21 0.0 1.0 0.00 0.00 0.00 84 1027.7
20211205115511 30 21 0.0 2.0 0.00 0.00 0.00 84 1027.7
20211205115012 30 21 0.0 2.0 0.00 0.00 0.00 84 1027.5
20211205114509 30 21 1.0 2.0 0.00 0.00 0.00 84 1027.4
20211205114013 30 21 0.0 0.0 0.00 0.00 0.00 84 1027.4
20211205113511 30 21 0.0 0.0 0.00 0.00 0.00 84 1027.3
20211205113008 30 21 0.0 0.0 0.00 0.00 0.00 84 1027.2
20211205112518 30 21 0.0 0.0 0.00 0.00 0.00 84 1027.1
20211205112005 30 21 0.0 0.0 0.00 0.00 0.00 84 1027.0
20211205111508 30 21 0.0 0.0 0.00 0.00 0.00 84 1026.9
20211205111008 30 21 0.0 0.0 0.00 0.00 0.00 85 1026.9
20211205110505 30 21 0.0 0.0 0.00 0.00 0.00 85 1026.8
20211205110009 30 21 0.0 0.0 0.00 0.00 0.00 85 1026.8
20211205105503 30 21 0.0 1.0 0.00 0.00 0.00 86 1026.8
20211205105002 30 21 0.0 1.0 0.00 0.00 0.00 86 1026.7
20211205104501 30 21 0.0 0.0 0.00 0.00 0.00 85 1026.6
20211205104007 30 21 0.0 0.0 0.00 0.00 0.00 85 1026.5
20211205103600 31 21 0.0 1.0 0.00 0.00 0.00 85 1026.5
20211205103158 31 21 0.0 2.0 0.00 0.00 0.00 84 1026.5
20211205102630 31 21 0.0 2.0 0.00 0.00 0.00 84 1026.3
20211205102059 32 21 0.0 2.0 0.00 0.00 0.00 83 1026.3
20211205101915 32 21 0.0 1.0 0.00 0.00 0.00 82 1026.3
20211205101058 32 21 0.0 2.0 0.00 0.00 0.00 82 1026.3
20211205100602 33 21 0.0 2.0 0.00 0.00 0.00 81 1026.2
20211205100229 33 21 0.0 2.0 0.00 0.00 0.00 81 1026.1
20211205095556 33 21 1.0 2.0 0.00 0.00 0.00 81 1026.0
20211205095102 33 21 0.0 2.0 0.00 0.00 0.00 80 1026.0
20211205094648 34 21 1.0 2.0 0.00 0.00 0.00 80 1026.0
20211205094110 34 21 0.0 4.0 0.00 0.00 0.00 80 1025.9
20211205093601 34 21 0.0 4.0 0.00 0.00 0.00 80 1025.8
20211205093152 35 19 1.0 4.0 0.00 0.00 0.00 80 1025.8
20211205092619 34 21 2.0 3.0 0.00 0.00 0.00 80 1025.7
20211205092051 34 21 2.0 5.0 0.00 0.00 0.00 82 1025.6
20211205091640 33 22 2.0 4.0 0.00 0.00 0.00 84 1025.6
20211205091058 33 24 2.0 3.0 0.00 0.00 0.00 84 1025.6
20211205090550 33 24 1.0 3.0 0.00 0.00 0.00 84 1025.5
20211205090109 33 24 0.0 4.0 0.00 0.00 0.00 84 1025.5
20211205085549 33 24 1.0 4.0 0.00 0.00 0.00 84 1025.4
20211205085116 33 24 1.0 2.0 0.00 0.00 0.00 84 1025.3
20211205084634 33 24 1.0 2.0 0.00 0.00 0.00 84 1025.2
20211205083546 34 24 0.0 2.0 0.00 0.00 0.00 84 1025.1
20211205083132 34 24 1.0 3.0 0.00 0.00 0.00 84 1025.1
20211205082603 34 24 1.0 3.0 0.00 0.00 0.00 84 1025.1
20211205082045 34 24 1.0 3.0 0.00 0.00 0.00 85 1025.1
20211205081556 34 24 1.0 4.0 0.00 0.00 0.00 86 1025.0
20211205081111 34 112 2.0 3.0 0.00 0.00 0.00 88 1024.9
20211205080548 33 115 1.0 3.0 0.00 0.00 0.00 90 1024.9
20211205080333 32 115 1.0 3.0 0.00 0.00 0.00 91 1024.8
20211205075541 32 117 1.0 4.0 0.00 0.00 0.00 92 1024.7
20211205075044 32 137 0.0 2.0 0.00 0.00 0.00 92 1024.8
20211205074622 31 137 1.0 2.0 0.00 0.00 0.00 93 1024.7
20211205074047 31 138 0.0 2.0 0.00 0.00 0.00 93 1024.6
20211205073541 31 138 0.0 2.0 0.00 0.00 0.00 93 1024.6
20211205073107 30 138 1.0 2.0 0.00 0.00 0.00 93 1024.5
20211205072536 30 138 0.0 2.0 0.00 0.00 0.00 92 1024.3
20211205072035 30 138 0.0 2.0 0.00 0.00 0.00 92 1024.3
20211205071548 30 138 0.0 1.0 0.00 0.00 0.00 92 1024.2
20211205071123 30 138 0.0 1.0 0.00 0.00 0.00 92 1024.1
20211205070532 30 138 0.0 1.0 0.00 0.00 0.00 92 1024.1
20211205070036 30 138 0.0 1.0 0.00 0.00 0.00 92 1024.0
20211205065535 30 138 0.0 1.0 0.00 0.00 0.00 92 1024.0
20211205065040 30 138 0.0 1.0 0.00 0.00 0.00 92 1024.0
20211205064632 30 138 0.0 0.0 0.00 0.00 0.00 92 1023.9
20211205064036 30 138 0.0 1.0 0.00 0.00 0.00 92 1023.9
20211205063527 30 138 0.0 1.0 0.00 0.00 0.00 92 1023.9
20211205063035 31 138 0.0 1.0 0.00 0.00 0.00 92 1024.0
20211205062537 31 138 0.0 1.0 0.00 0.00 0.00 92 1023.9
20211205062026 31 138 0.0 0.0 0.00 0.00 0.00 92 1023.9
20211205061542 31 138 0.0 0.0 0.00 0.00 0.00 92 1023.8
20211205061026 31 138 0.0 0.0 0.00 0.00 0.00 92 1023.9
20211205060523 31 138 0.0 0.0 0.00 0.00 0.00 92 1023.8
20211205060030 31 138 0.0 0.0 0.00 0.00 0.00 92 1023.6
20211205055539 31 138 0.0 0.0 0.00 0.00 0.00 92 1023.6
20211205055030 31 138 0.0 0.0 0.00 0.00 0.00 92 1023.6
20211205054552 31 138 0.0 0.0 0.00 0.00 0.00 91 1023.5
20211205054020 31 138 0.0 0.0 0.00 0.00 0.00 91 1023.4
20211205053519 32 138 0.0 0.0 0.00 0.00 0.00 91 1023.4
20211205053054 32 138 0.0 0.0 0.00 0.00 0.00 91 1023.4
20211205052518 32 138 0.0 0.0 0.00 0.00 0.00 91 1023.2
20211205052019 32 138 0.0 1.0 0.00 0.00 0.00 91 1023.1
20211205051601 32 138 0.0 1.0 0.00 0.00 0.00 91 1023.1
20211205051016 32 138 0.0 0.0 0.00 0.00 0.00 91 1023.0
20211205050515 32 138 0.0 0.0 0.00 0.00 0.00 91 1023.0
20211205050016 32 138 0.0 1.0 0.00 0.00 0.00 91 1022.9
20211205045519 32 138 0.0 1.0 0.00 0.00 0.00 91 1022.8
20211205045012 32 138 0.0 1.0 0.00 0.00 0.00 91 1022.7
20211205044519 32 138 0.0 0.0 0.00 0.00 0.00 91 1022.7
20211205044011 33 138 0.0 0.0 0.00 0.00 0.00 91 1022.6
20211205043510 33 138 0.0 0.0 0.00 0.00 0.00 91 1022.5
20211205043009 33 138 0.0 0.0 0.00 0.00 0.00 91 1022.5
20211205042509 33 138 0.0 0.0 0.00 0.00 0.00 91 1022.5
20211205042011 33 138 0.0 1.0 0.00 0.00 0.00 91 1022.4
20211205041513 33 138 0.0 1.0 0.00 0.00 0.00 91 1022.4
20211205041007 33 138 0.0 1.0 0.00 0.00 0.00 91 1022.4
20211205040507 33 138 0.0 1.0 0.00 0.00 0.00 91 1022.3
20211205040010 33 138 0.0 1.0 0.00 0.00 0.00 91 1022.3
20211205035506 33 138 0.0 1.0 0.00 0.00 0.00 91 1022.4
20211205035006 33 138 0.0 1.0 0.00 0.00 0.00 91 1022.3
20211205034505 33 138 0.0 1.0 0.00 0.00 0.00 91 1022.1
20211205034005 33 138 0.0 0.0 0.00 0.00 0.00 91 1022.1
20211205033505 33 138 0.0 0.0 0.00 0.00 0.00 91 1022.3
20211205033045 33 138 0.0 0.0 0.00 0.00 0.00 91 1022.3
20211205032502 33 138 0.0 0.0 0.00 0.00 0.00 90 1022.1
20211205032003 34 138 0.0 0.0 0.00 0.00 0.00 90 1022.2
20211205031502 34 138 0.0 0.0 0.00 0.00 0.00 90 1022.2
20211205031009 34 138 0.0 0.0 0.00 0.00 0.00 90 1022.3
20211205030501 34 138 0.0 0.0 0.00 0.00 0.00 90 1022.3
20211205030200 34 138 0.0 0.0 0.00 0.00 0.00 90 1022.3
20211205025559 34 138 0.0 0.0 0.00 0.00 0.00 90 1022.2
20211205024645 35 138 0.0 0.0 0.00 0.00 0.00 90 1021.9
20211205024055 35 138 0.0 0.0 0.00 0.00 0.00 90 1021.8
20211205023555 35 138 0.0 0.0 0.00 0.00 0.00 90 1021.7
20211205023201 35 138 0.0 0.0 0.00 0.00 0.00 90 1021.6
20211205022616 35 138 0.0 1.0 0.00 0.00 0.00 90 1021.6
20211205022100 35 138 0.0 1.0 0.00 0.00 0.00 90 1021.5
20211205021636 35 138 0.0 1.0 0.00 0.00 0.00 90 1021.5
20211205021055 35 138 0.0 0.0 0.00 0.00 0.00 90 1021.3
20211205020556 35 138 0.0 0.0 0.00 0.00 0.00 90 1021.4
20211205020253 35 138 0.0 0.0 0.00 0.00 0.00 90 1021.2
20211205015552 35 138 0.0 0.0 0.00 0.00 0.00 90 1021.3
20211205015057 35 138 0.0 0.0 0.00 0.00 0.00 90 1021.1
20211205014628 35 138 0.0 0.0 0.00 0.00 0.00 90 1021.2
20211205014048 35 138 0.0 0.0 0.00 0.00 0.00 90 1021.1
20211205013550 35 138 0.0 0.0 0.00 0.00 0.00 90 1021.0
20211205013140 35 138 0.0 0.0 0.00 0.00 0.00 89 1021.0
20211205012546 36 138 0.0 0.0 0.00 0.00 0.00 89 1021.0
20211205012053 36 138 0.0 0.0 0.00 0.00 0.00 89 1021.0
20211205011620 36 138 0.0 0.0 0.00 0.00 0.00 89 1021.0
20211205011044 36 138 0.0 0.0 0.00 0.00 0.00 89 1020.9
20211205010548 36 138 0.0 0.0 0.00 0.00 0.00 89 1020.9
20211205010110 36 138 0.0 0.0 0.00 0.00 0.00 89 1020.8
20211205005542 36 138 0.0 0.0 0.00 0.00 0.00 89 1020.7
20211205005046 36 138 0.0 0.0 0.00 0.00 0.00 89 1020.7
20211205004609 36 138 0.0 0.0 0.00 0.00 0.00 89 1020.7
20211205004040 36 138 0.0 0.0 0.00 0.00 0.00 88 1020.7
20211205003542 37 138 0.0 0.0 0.00 0.00 0.00 88 1020.5
20211205003124 37 138 0.0 0.0 0.00 0.00 0.00 88 1020.5
20211205002537 37 138 0.0 0.0 0.00 0.00 0.00 88 1020.4
20211205002036 37 138 0.0 0.0 0.00 0.00 0.00 88 1020.3
20211205001556 37 138 0.0 0.0 0.00 0.00 0.00 87 1020.4
20211205001037 38 138 0.0 0.0 0.00 0.00 0.00 87 1020.4
20211205000533 38 138 0.0 0.0 0.00 0.00 0.00 87 1020.4
20211205000055 38 138 0.0 0.0 0.00 0.00 0.00 87 1020.3
20211204235544 38 138 0.0 0.0 0.00 0.00 0.00 87 1020.1
20211204235031 38 138 0.0 0.0 0.00 0.00 0.00 87 1020.1
20211204234544 39 138 0.0 0.0 0.00 0.00 0.00 87 1020.0
20211204234030 39 138 0.0 0.0 0.00 0.00 0.00 87 1019.9
20211204233529 39 138 0.0 0.0 0.00 0.00 0.00 86 1019.8
20211204233029 39 138 0.0 0.0 0.00 0.00 0.00 86 1019.9
20211204232535 39 138 0.0 1.0 0.00 0.00 0.00 86 1019.9
20211204232032 40 138 0.0 1.0 0.00 0.00 0.00 86 1019.8
20211204231556 40 138 0.0 1.0 0.00 0.00 0.00 85 1019.7
20211204231024 40 138 0.0 1.0 0.00 0.00 0.00 85 1019.6
20211204230537 40 138 0.0 0.0 0.00 0.00 0.00 85 1019.6
20211204230047 41 138 0.0 0.0 0.00 0.00 0.00 84 1019.6
20211204225522 41 138 0.0 0.0 0.00 0.00 0.00 84 1019.6
20211204225021 41 138 0.0 0.0 0.00 0.00 0.00 83 1019.6
20211204224547 42 138 0.0 0.0 0.00 0.00 0.00 83 1019.6
20211204224019 42 138 0.0 0.0 0.00 0.00 0.00 83 1019.5
20211204223523 42 138 0.0 0.0 0.00 0.00 0.00 82 1019.4
20211204223034 43 138 0.0 0.0 0.00 0.00 0.00 81 1019.5
20211204222518 43 138 0.0 0.0 0.00 0.00 0.00 81 1019.4
20211204222018 44 138 0.0 0.0 0.00 0.00 0.00 80 1019.4
20211204221519 44 138 0.0 0.0 0.00 0.00 0.00 80 1019.4
20211204221034 45 138 0.0 1.0 0.00 0.00 0.00 79 1019.4
20211204220529 45 138 0.0 1.0 0.00 0.00 0.00 78 1019.3
20211204220041 46 138 0.0 0.0 0.00 0.00 0.00 78 1019.3
20211204215517 46 138 0.0 2.0 0.00 0.00 0.00 77 1019.3
20211204215029 47 138 0.0 2.0 0.00 0.00 0.00 76 1019.2
20211204214550 48 138 0.0 2.0 0.00 0.00 0.00 75 1019.2
20211204214037 49 138 0.0 2.0 0.00 0.00 0.00 73 1019.2
20211204213531 49 138 0.0 2.0 0.00 0.00 0.00 74 1019.1
20211204213029 50 138 0.0 1.0 0.00 0.00 0.00 74 1019.0
20211204212525 50 138 0.0 1.0 0.00 0.00 0.00 73 1019.0
20211204212017 51 138 0.0 1.0 0.00 0.00 0.00 72 1018.9
20211204211521 51 138 0.0 1.0 0.00 0.00 0.00 71 1018.8
20211204211017 51 138 0.0 1.0 0.00 0.00 0.00 71 1018.7
20211204210517 51 138 0.0 1.0 0.00 0.00 0.00 70 1018.7
20211204210100 51 138 0.0 1.0 0.00 0.00 0.00 70 1018.5
20211204205516 51 138 0.0 3.0 0.00 0.00 0.00 70 1018.4
20211204205020 52 138 1.0 3.0 0.00 0.00 0.00 70 1018.5
20211204204545 52 138 0.0 2.0 0.00 0.00 0.00 70 1018.5
20211204204013 52 138 0.0 4.0 0.00 0.00 0.00 70 1018.6
20211204203520 52 138 1.0 4.0 0.00 0.00 0.00 70 1018.5
20211204203049 52 139 1.0 3.0 0.00 0.00 0.00 69 1018.4
20211204202514 52 139 1.0 3.0 0.00 0.00 0.00 69 1018.3
20211204202016 52 139 1.0 3.0 0.00 0.00 0.00 69 1018.3
20211204201545 52 139 1.0 3.0 0.00 0.00 0.00 68 1018.2
20211204201013 52 135 1.0 4.0 0.00 0.00 0.00 69 1018.2
20211204200513 53 138 2.0 4.0 0.00 0.00 0.00 68 1018.1
20211204200042 53 139 1.0 3.0 0.00 0.00 0.00 68 1018.0
20211204195513 53 144 1.0 6.0 0.00 0.00 0.00 68 1017.9
20211204195013 53 123 3.0 7.0 0.00 0.00 0.00 67 1017.7
20211204194539 53 186 3.0 7.0 0.00 0.00 0.00 67 1017.7
20211204194012 52 154 2.0 7.0 0.00 0.00 0.00 68 1017.7
20211204193510 52 82 3.0 7.0 0.00 0.00 0.00 68 1017.7
20211204193042 52 83 2.0 7.0 0.00 0.00 0.00 67 1017.8
20211204192510 53 126 2.0 5.0 0.00 0.00 0.00 65 1017.8
20211204192010 53 121 1.0 6.0 0.00 0.00 0.00 65 1017.9
20211204191515 53 147 2.0 5.0 0.00 0.00 0.00 65 1017.9
20211204191011 53 174 1.0 5.0 0.00 0.00 0.00 65 1018.0
20211204190513 53 123 3.0 6.0 0.00 0.00 0.00 64 1017.8
20211204190033 53 134 1.0 7.0 0.00 0.00 0.00 65 1017.8
20211204185512 53 86 4.0 7.0 0.00 0.00 0.00 65 1017.8
20211204185015 53 119 1.0 6.0 0.00 0.00 0.00 66 1018.0
20211204184515 52 127 4.0 6.0 0.00 0.00 0.00 65 1018.0
20211204184005 52 103 2.0 8.0 0.00 0.00 0.00 65 1018.1
20211204183505 53 85 4.0 8.0 0.00 0.00 0.00 65 1018.2
20211204183033 52 51 1.0 5.0 0.00 0.00 0.00 66 1018.2
20211204182504 52 63 2.0 6.0 0.00 0.00 0.00 66 1018.2
20211204182003 52 51 3.0 6.0 0.00 0.00 0.00 66 1018.3
20211204181514 51 85 3.0 6.0 0.00 0.00 0.00 66 1018.4
20211204181007 52 48 2.0 6.0 0.00 0.00 0.00 66 1018.4
20211204180505 52 112 2.0 7.0 0.00 0.00 0.00 66 1018.4
20211204180004 51 118 4.0 7.0 0.00 0.00 0.00 66 1018.5
20211204175502 52 98 3.0 7.0 0.00 0.00 0.00 65 1018.5
20211204175002 52 103 3.0 8.0 0.00 0.00 0.00 65 1018.4
20211204174502 52 96 3.0 8.0 0.00 0.00 0.00 65 1018.4
20211204174001 52 87 3.0 8.0 0.00 0.00 0.00 64 1018.5
20211204173500 52 53 3.0 9.0 0.00 0.00 0.00 66 1018.6
20211204173159 51 74 3.0 10.0 0.00 0.00 0.00 66 1018.6
20211204172600 51 124 4.0 10.0 0.00 0.00 0.00 66 1018.6
20211204172058 51 49 3.0 9.0 0.00 0.00 0.00 67 1018.6
20211204171621 50 70 3.0 9.0 0.00 0.00 0.00 68 1018.7
20211204171056 50 79 2.0 8.0 0.00 0.00 0.00 69 1018.8
20211204170558 49 96 3.0 6.0 0.00 0.00 0.00 69 1018.8
20211204170150 49 48 2.0 6.0 0.00 0.00 0.00 70 1018.9
20211204165601 49 57 1.0 6.0 0.00 0.00 0.00 70 1019.0
20211204165053 48 66 2.0 6.0 0.00 0.00 0.00 70 1019.1
20211204164615 48 63 2.0 6.0 0.00 0.00 0.00 70 1019.0
20211204164052 48 50 2.0 8.0 0.00 0.00 0.00 70 1019.1
20211204163604 48 42 3.0 8.0 0.00 0.00 0.00 70 1019.2
20211204163118 48 90 2.0 9.0 0.00 0.00 0.00 70 1019.4
20211204162551 48 46 4.0 9.0 0.00 0.00 0.00 69 1019.4
20211204162108 48 53 4.0 9.0 0.00 0.00 0.00 69 1019.5
20211204161710 48 50 4.0 9.0 0.00 0.00 0.00 69 1019.5
20211204161050 48 72 2.0 9.0 0.00 0.00 0.00 69 1019.5
20211204160550 48 75 3.0 7.0 0.00 0.00 0.00 69 1019.5
20211204160224 48 57 3.0 10.0 0.00 0.00 0.00 69 1019.7
20211204155550 48 55 4.0 10.0 0.00 0.00 0.00 68 1019.6
20211204155049 48 57 2.0 10.0 0.00 0.00 0.00 68 1019.6
20211204154629 48 34 3.0 10.0 0.00 0.00 0.00 69 1019.5
20211204154047 48 43 1.0 10.0 0.00 0.00 0.00 70 1019.5
20211204153608 47 58 4.0 11.0 0.00 0.00 0.00 69 1019.6
20211204153206 47 86 3.0 11.0 0.00 0.00 0.00 70 1019.5
20211204152558 47 61 4.0 9.0 0.00 0.00 0.00 70 1019.6
20211204152045 47 31 3.0 8.0 0.00 0.00 0.00 70 1019.4
20211204151656 47 30 3.0 8.0 0.00 0.00 0.00 70 1019.5
20211204151053 47 61 2.0 9.0 0.00 0.00 0.00 70 1019.5
20211204150543 47 62 4.0 9.0 0.00 0.00 0.00 70 1019.5
20211204150216 47 33 3.0 9.0 0.00 0.00 0.00 71 1019.5
20211204145543 47 46 3.0 10.0 0.00 0.00 0.00 71 1019.4
20211204145043 47 44 5.0 10.0 0.00 0.00 0.00 71 1019.4
20211204144700 47 49 2.0 6.0 0.00 0.00 0.00 72 1019.3
20211204144041 46 57 3.0 6.0 0.00 0.00 0.00 71 1019.3
20211204143602 46 46 1.0 7.0 0.00 0.00 0.00 72 1019.3